IK5WWP Weather Reports


Display with metric or nautical units.
time (UTC)temp
F
wind
direction
speed
MPH
gust
MPH
rain 1hr
in
rain 24hr
in
rain mn
in
humidity
%
barometer
mb
20260504234159 61 0 0.0 0.0 0.00 0.00 0.00 73 1015.0
20260504233259 60 0 0.0 0.0 0.00 0.00 0.00 73 1015.3
20260504232359 60 1 0.0 2.0 0.00 0.00 0.00 73 1015.2
20260504230559 61 0 0.0 0.0 0.00 0.00 0.00 70 1015.6
20260504225659 61 1 0.0 2.0 0.00 0.00 0.00 69 1015.6
20260504224759 61 1 2.0 2.0 0.00 0.00 0.00 70 1015.8
20260504222959 61 357 0.0 2.0 0.00 0.00 0.00 70 1016.0
20260504222059 61 354 1.0 2.0 0.00 0.00 0.00 70 1016.0
20260504221159 61 1 0.0 2.0 0.00 0.00 0.00 71 1016.0
20260504214500 60 354 1.0 2.0 0.00 0.00 0.00 72 1016.3
20260504213600 60 2 1.0 4.0 0.00 0.00 0.00 73 1016.3
20260504212700 60 1 2.0 2.0 0.00 0.00 0.00 74 1016.2
20260504211800 60 1 1.0 2.0 0.00 0.00 0.00 74 1016.3
20260504210900 60 1 2.0 2.0 0.00 0.00 0.00 73 1016.1
20260504210000 61 352 0.0 2.0 0.00 0.00 0.00 73 1016.4
20260504205100 61 346 0.0 4.0 0.00 0.00 0.00 73 1016.4
20260504204200 61 356 2.0 4.0 0.00 0.00 0.00 73 1016.3
20260504203300 61 3 1.0 2.0 0.00 0.00 0.00 73 1016.5
20260504202400 62 60 1.0 2.0 0.00 0.00 0.00 73 1016.6
20260504201500 62 90 0.0 2.0 0.00 0.00 0.00 73 1016.7
20260504200600 62 117 0.0 2.0 0.00 0.00 0.00 73 1016.6
20260504195700 62 68 0.0 2.0 0.00 0.00 0.00 73 1016.6
20260504194800 62 0 0.0 0.0 0.00 0.00 0.00 73 1016.4
20260504193900 62 68 0.0 2.0 0.00 0.00 0.00 73 1016.2
20260504193000 62 68 0.0 2.0 0.00 0.00 0.00 73 1016.2
20260504192100 62 68 0.0 2.0 0.00 0.00 0.00 73 1016.3
20260504191200 63 0 0.0 0.0 0.00 0.00 0.00 72 1016.2
20260504190300 64 0 0.0 0.0 0.00 0.00 0.00 69 1016.0
20260504185400 65 0 0.0 0.0 0.00 0.00 0.00 67 1016.1
20260504184500 65 68 0.0 2.0 0.00 0.00 0.00 67 1015.8
20260504183600 66 68 0.0 2.0 0.00 0.00 0.00 66 1015.9
20260504182700 66 55 1.0 4.0 0.00 0.00 0.00 66 1015.8
20260504181800 66 38 1.0 4.0 0.00 0.00 0.00 66 1015.5
20260504180900 67 34 0.0 2.0 0.00 0.00 0.00 65 1016.0
20260504180000 67 83 1.0 4.0 0.00 0.00 0.00 65 1016.0
20260504175100 67 66 0.0 4.0 0.00 0.00 0.00 65 1015.6
20260504174200 67 72 2.0 4.0 0.00 0.00 0.00 65 1015.7
20260504173300 67 73 2.0 4.0 0.00 0.00 0.00 65 1015.7
20260504172400 68 68 2.0 6.0 0.00 0.00 0.00 64 1015.7
20260504171500 69 88 2.0 4.0 0.00 0.00 0.00 64 1015.6
20260504170600 69 68 2.0 4.0 0.00 0.00 0.00 63 1015.5
20260504160300 71 93 1.0 4.0 0.00 0.00 0.00 59 1015.5
20260504150900 73 149 1.0 2.0 0.00 0.00 0.00 45 1015.3
20260504140601 74 148 0.0 2.0 0.00 0.00 0.00 42 1015.7
20260504110600 74 136 2.0 4.0 0.00 0.00 0.00 35 1017.4
20260504100301 73 142 1.0 2.0 0.00 0.00 0.00 44 1017.8
20260504081501 65 155 0.0 2.0 0.00 0.00 0.00 62 1018.1
20260504080601 64 152 1.0 2.0 0.00 0.00 0.00 63 1018.0
20260504070301 59 69 1.0 2.0 0.00 0.00 0.00 67 1018.3
20260504050601 52 0 0.0 0.0 0.00 0.00 0.00 78 1018.2
20260504045701 52 0 0.0 0.0 0.00 0.00 0.00 77 1017.9
20260504044801 51 0 0.0 0.0 0.00 0.00 0.00 78 1017.8
20260504043901 51 0 0.0 0.0 0.00 0.00 0.00 79 1017.7
20260504043001 51 0 0.0 0.0 0.00 0.00 0.00 79 1017.9
20260504042101 51 0 0.0 0.0 0.00 0.00 0.00 79 1017.7
20260504041201 51 0 0.0 0.0 0.00 0.00 0.00 79 1017.6
20260504035401 50 0 0.0 0.0 0.00 0.00 0.00 79 1017.5
20260504034501 50 0 0.0 0.0 0.00 0.00 0.00 78 1017.3
20260504033601 50 0 0.0 0.0 0.00 0.00 0.00 78 1017.4
20260504032701 50 0 0.0 0.0 0.00 0.00 0.00 77 1017.6
20260504031801 50 0 0.0 0.0 0.00 0.00 0.00 77 1017.3
20260504030901 50 0 0.0 0.0 0.00 0.00 0.00 76 1017.2
20260504025101 51 0 0.0 0.0 0.00 0.00 0.00 76 1017.3
20260504024201 51 0 0.0 0.0 0.00 0.00 0.00 76 1017.4
20260504023301 51 0 0.0 0.0 0.00 0.00 0.00 75 1017.4
20260504022401 52 0 0.0 0.0 0.00 0.00 0.00 74 1017.4
20260504021501 52 1 0.0 2.0 0.00 0.00 0.00 74 1017.5
20260504020601 53 1 0.0 2.0 0.00 0.00 0.00 68 1017.6
20260504015701 52 0 0.0 0.0 0.00 0.00 0.00 71 1017.4
20260504014801 52 0 0.0 0.0 0.00 0.00 0.00 72 1017.4
20260504013001 52 0 0.0 0.0 0.00 0.00 0.00 71 1017.3
20260504012101 51 0 0.0 0.0 0.00 0.00 0.00 74 1017.3
20260504011201 51 0 0.0 0.0 0.00 0.00 0.00 74 1017.6
20260504010301 51 22 0.0 2.0 0.00 0.00 0.00 73 1017.4
20260504005401 51 0 0.0 0.0 0.00 0.00 0.00 72 1017.3
20260504004501 51 0 0.0 0.0 0.00 0.00 0.00 72 1017.5
20260504003602 52 0 0.0 0.0 0.00 0.00 0.00 72 1017.2
20260504002701 52 0 0.0 0.0 0.00 0.00 0.00 71 1017.4
20260504001801 53 0 0.0 0.0 0.00 0.00 0.00 70 1017.5
20260504000901 53 0 0.0 0.0 0.00 0.00 0.00 70 1017.6
20260504000002 53 0 0.0 0.0 0.00 0.00 0.00 70 1017.7